Location: Feigenhofen
(48.4939°N, 10.7793°E)
Time: 05:32:47
(UTC+00:00)

USA 215 - Pass Details

Date: 26 May 2022
Orbit: 1099 x 1108 km, 123.0° (Epoch: 10 June)

Event Time Altitude Azimuth Distance (km) Brightness Sun altitude
Rises 00:16:48 0° 60° (ENE) 3,924 6.9 -19.0°
Reaches altitude 10° 00:19:20 10° 56° (NE) 2,966 6.2 -18.9°
Maximum altitude 00:25:39 53° 342° (NNW) 1,337 4.0 -18.6°
Drops below altitude 10° 00:31:57 10° 268° (W) 2,967 5.3 -18.3°
Sets 00:34:29 0° 264° (W) 3,925 5.9 -18.1°
